Probability
0 0 0 0 0 0 0 0 0 0 0 0 0 0 0 0 0 0 0 0 0 0 0 0 0 0 0 0 0 0 0 0 0 0 0 0 0 0 0 0 0 0 0
0 0 0 0 0 0 0 0 0 0 0 0 0 0 0 0 0 0 0 0 0 0 0 0 0 0 0 0 0 0 0 0 0 0 0 0 0 0 0 0 0 0 0
0 0 0 0 0 0 0 0 0 0 0 0 0 0 0 0 0 0 0 0 0 0 0 0 0 0 0 0 0 0 0 0 0 0 0 0 0 0 0 0 0 0 0
0 0 0 0 0 0 0 0 0 0 0 0 0 0 0 0 0 0 0 0 0 0 0 0 0 0 0 0 0 0 0 0 0 0 0 0 0 0 0 0 0 0 0
0 0 0 0 0 0 0 0 0 0 0 0 0 0 0 0 0 0 0 0 0 0 0 0 0 0 0 0 0 0 0 0 0 0 1 1 1 1 1 0 0 0 0
0 0 0 0 0 0 0 0 0 0 0 0 0 0 0 0 0 0 0 0 0 0 0 0 0 0 0 0 0 0 0 0 0 0 1 2 2 1 1 0 0 0 0
0 0 0 0 0 0 0 0 0 0 0 0 0 0 0 0 0 0 0 0 0 0 0 0 0 0 0 0 0 0 0 0 0 0 1 1 1 1 0 0 0 0 0
0 0 0 0 0 0 0 0 0 0 0 0 0 0 0 0 0 0 0 0 0 0 0 0 0 0 0 0 0 0 0 0 0 0 0 0 0 0 0 0 0 0 0
1 0 0 0 0 0 0 0 0 0 0 0 0 0 0 0 0 0 0 0 0 0 0 0 0 0 0 0 0 0 0 0 0 0 0 0 0 0 0 0 0 0 0
2 1 0 0 0 0 0 0 0 0 0 0 0 0 0 0 0 0 0 0 0 0 0 0 0 0 0 0 0 0 0 0 0 0 0 0 0 0 0 0 0 0 0
3 2 1 0 0 0 0 0 0 0 0 0 0 0 0 0 0 0 0 0 0 0 0 0 0 0 0 0 0 0 0 0 0 0 0 0 0 0 0 0 0 0 0
3 3 2 1 0 0 0 0 0 0 0 0 0 0 0 0 0 0 0 0 0 0 0 0 0 0 0 0 0 0 0 0 0 0 0 0 0 0 0 0 0 0 0
2 2 2 2 1 0 0 0 0 0 0 0 0 0 0 0 0 0 0 0 0 0 0 0 0 0 0 0 0 0 0 0 0 0 0 0 0 0 0 0 0 0 0
1 1 1 1 1 0 0 0 0 0 0 0 0 0 0 0 0 0 0 0 0 0 0 0 0 0 0 0 0 0 0 0 0 0 0 0 0 0 0 0 0 0 0
0 0 0 0 0 0 0 0 0 0 0 0 0 0 0 0 0 0 0 0 0 0 0 0 0 0 0 0 0 0 0 0 0 0 0 0 0 0 0 0 0 0 0
0 0 0 0 0 0 0 0 1 0 0 0 0 0 0 0 0 0 0 0 0 0 0 0 0 0 0 0 0 0 0 0 0 0 0 0 0 0 0 0 0 0 0
0 0 0 0 0 0 0 0 0 0 0 0 0 0 0 0 0 0 0 0 0 0 0 0 0 0 0 0 0 0 0 0 0 0 0 0 0 0 0 0 0 0 0
0 0 0 0 0 0 0 0 0 0 0 0 0 0 0 0 0 0 0 0 0 0 0 0 0 0 0 0 0 0 0 0 0 0 0 0 0 0 0 0 0 0 0
0 0 0 0 0 0 0 0 0 0 0 0 0 0 0 0 0 0 0 0 0 0 0 0 0 0 0 0 0 0 0 0 0 0 0 0 0 0 0 0 0 0 0
0 0 0 0 0 0 0 0 0 0 0 0 0 0 0 0 0 0 0 0 0 0 0 0 0 0 0 0 0 0 0 0 0 0 0 0 0 0 0 0 0 0 0
0 0 0 0 0 0 0 0 0 0 0 0 0 0 0 0 0 0 0 0 0 0 0 0 0 0 0 0 0 0 0 0 0 0 0 0 0 0 0 0 0 0 0
0 0 0 0 0 0 0 0 0 0 0 0 0 0 0 0 0 0 0 0 0 0 0 0 0 0 0 0 0 0 0 0 0 0 0 0 0 0 0 0 0 0 0
0 0 0 0 0 0 0 0 0 0 0 0 0 0 0 0 0 0 0 0 0 0 0 0 0 0 0 0 0 0 0 0 0 0 0 0 0 0 0 0 0 0 0
0 0 0 0 0 0 0 0 0 0 0 0 0 0 0 0 0 0 0 0 0 0 0 0 0 0 0 0 0 0 0 0 0 0 0 0 0 0 0 0 0 0 0
0 0 0 0 0 0 0 0 0 0 0 0 0 0 0 0 0 0 0 0 0 0 0 0 0 0 0 0 0 0 0 0 0 0 0 0 0 0 0 0 0 0 0
0 0 0 0 0 0 0 0 0 0 0 0 0 0 0 0 0 0 0 0 0 0 0 0 0 0 0 0 0 0 0 0 0 0 0 0 0 0 0 0 0 0 0
Wind_Speed
1 1 1 1 1 1 1 2 2 2 2 2 2 3 4 4 3 3 3 5 7 8 9 9 8 8 7 7 7 6 6 5 5 5 5 5 6 6 7 8 8 8 9
2 2 1 1 2 2 2 2 3 3 3 2 3 3 4 4 4 4 3 4 6 7 8 9 9 8 8 8 8 7 6 6 5 5 5 5 6 6 7 7 8 8 9
2 2 2 2 2 2 2 2 2 2 2 2 4 4 4 4 4 4 4 3 3 5 7 9 9 9 9 9 9 8 7 7 7 6 6 6 6 7 7 7 8 8 8
3 2 2 2 2 1 2 2 2 2 3 3 3 4 4 4 5 4 4 3 3 3 4 7 8 9 9 9 9 9 8 8 8 7 7 7 7 7 8 8 8 9 9
3 3 3 2 2 2 2 2 2 2 3 3 4 4 4 4 4 4 3 4 4 3 3 4 6 7 9 10 10 10 9 9 9 8 7 7 8 8 8 8 9 9 9
2 2 2 2 1 1 2 2 3 3 3 3 3 4 4 4 3 3 3 3 3 3 3 3 3 4 7 9 10 10 10 10 9 8 8 7 8 9 9 9 9 10 10
1 1 1 1 1 2 2 3 3 3 3 2 2 4 4 4 4 3 3 3 3 3 2 3 2 2 3 7 9 10 10 10 10 9 8 8 8 9 9 10 10 10 11
3 1 1 1 1 1 2 2 2 2 2 2 2 2 3 3 3 4 3 3 3 2 3 3 2 3 3 2 4 7 9 10 10 9 9 9 9 10 10 10 11 11 11
4 3 2 1 1 1 1 2 2 2 3 2 2 2 2 4 3 3 2 3 3 2 3 3 3 3 3 2 2 5 6 8 9 9 9 9 9 10 10 11 11 11 12
5 4 4 3 2 1 2 2 2 2 2 2 2 2 3 2 3 3 2 2 3 3 4 3 3 3 2 2 2 3 5 6 7 8 9 9 10 11 11 11 11 11 12
5 5 5 4 4 3 3 3 2 2 2 3 2 2 3 2 2 3 5 3 3 3 3 4 3 3 2 2 2 3 5 6 7 8 9 9 10 11 11 12 12 12 12
3 5 5 4 4 4 4 4 3 3 3 3 3 2 1 2 2 3 5 5 5 3 3 3 3 3 2 2 3 4 6 7 8 8 8 9 10 11 12 12 12 12 13
3 4 4 4 4 4 4 4 4 4 4 4 3 3 3 3 2 3 4 5 6 4 3 2 3 2 2 2 3 6 6 8 8 9 9 9 10 10 11 12 12 13 13
3 4 4 4 4 4 4 4 3 3 4 4 4 4 3 3 3 3 3 4 6 5 4 4 2 2 2 2 4 6 4 7 9 9 9 10 10 10 11 12 12 13 13
4 5 5 5 4 4 4 4 3 4 4 4 4 4 4 3 3 3 3 3 4 7 7 3 2 1 2 2 4 4 4 7 9 10 10 10 10 10 11 11 11 12 12
5 5 5 5 5 5 5 4 4 5 5 4 3 4 4 4 3 3 3 3 4 6 7 3 3 3 3 3 5 4 5 7 8 9 10 10 10 11 11 11 11 11 12
4 5 5 5 5 5 5 5 5 5 5 5 5 5 5 4 4 4 3 4 4 5 8 6 4 3 3 4 4 4 4 4 5 7 9 10 10 10 10 10 10 11 11
5 5 5 5 5 5 5 5 6 6 6 6 6 6 6 4 5 4 4 5 5 5 6 8 5 4 4 4 4 4 4 4 4 7 9 9 10 9 9 10 10 10 10
5 5 5 5 5 5 5 5 5 5 5 6 6 6 6 6 6 5 5 5 5 5 5 6 6 4 4 3 4 4 4 3 4 5 7 8 8 9 9 9 9 9 10
4 5 5 5 5 5 5 5 5 6 6 6 6 6 6 6 6 7 6 6 5 6 5 5 6 5 4 3 3 4 5 4 4 5 6 7 8 9 9 10 9 9 9
4 4 5 5 5 5 5 6 6 6 6 6 6 6 6 7 8 7 6 6 6 6 5 5 5 5 4 4 4 4 6 5 5 4 4 5 4 4 5 7 8 9 10
5 5 5 5 5 5 8 10 8 6 6 6 7 6 6 6 8 9 10 9 8 7 7 6 5 6 7 6 5 5 6 6 6 3 4 5 4 5 5 4 8 11 11
5 5 5 5 5 6 10 10 10 6 5 5 6 6 6 6 7 7 9 10 9 8 8 7 7 7 7 6 6 6 6 6 7 5 5 6 4 5 5 6 10 11 10
5 5 5 5 5 7 10 10 10 6 5 5 5 6 7 7 7 8 7 7 7 7 7 6 6 7 7 6 6 6 6 6 6 4 4 6 4 5 6 5 9 10 10
5 5 5 4 5 6 9 10 9 5 4 5 5 5 6 6 10 11 8 7 7 7 8 9 9 9 11 11 8 4 4 4 5 4 3 4 4 5 5 4 6 9 10
5 5 5 5 5 5 8 10 9 4 5 5 5 5 6 8 11 11 7 6 7 7 7 7 7 8 7 7 7 5 4 4 4 5 3 3 4 4 5 4 3 5 5
Wind_Direction
205 212 231 239 243 248 252 255 253 254 253 255 255 254 255 252 251 249 262 267 271 277 280 283 284 282 281 279 281 279 280 284 288 289 293 296 298 299 299 301 302 303 304
199 203 228 240 250 239 236 240 247 252 258 256 263 259 258 259 256 252 254 266 265 268 274 279 280 280 279 278 279 278 279 279 278 282 286 286 289 293 297 299 298 300 301
208 206 213 231 249 248 240 243 259 255 262 268 270 266 258 255 252 253 253 253 258 264 267 273 275 276 277 279 280 277 279 279 277 278 279 280 283 286 290 294 295 296 299
213 208 218 230 237 228 235 239 247 256 258 260 265 267 261 257 251 249 251 248 246 253 261 265 265 268 273 276 276 276 279 280 279 279 279 279 281 285 288 291 293 294 295
218 211 220 234 228 227 235 245 252 251 261 266 265 265 262 258 253 249 252 250 244 243 248 262 262 262 267 270 272 273 277 280 280 280 280 280 281 283 284 286 288 291 292
236 218 226 236 225 239 257 254 257 252 253 266 270 272 266 258 251 250 250 252 254 252 254 262 268 274 269 267 269 272 275 278 278 279 279 279 282 284 285 286 287 288 291
311 232 271 255 225 229 253 264 265 259 258 261 267 283 272 252 244 257 243 241 249 254 262 261 258 270 281 275 271 270 273 277 276 277 277 278 282 283 285 286 288 290 291
355 328 309 293 294 270 273 272 279 277 270 239 236 281 293 291 271 254 239 240 251 265 270 269 266 268 268 266 273 273 276 281 281 279 279 282 284 284 285 285 286 288 289
5 0 347 326 312 281 282 284 282 268 272 262 229 224 256 264 301 277 255 255 261 269 269 270 265 267 268 270 273 276 286 287 286 284 283 283 284 283 283 284 287 287 287
5 1 359 356 341 321 305 299 301 282 267 271 274 247 255 264 268 291 288 280 280 273 268 271 269 267 258 267 285 298 307 303 297 293 290 290 289 287 285 285 286 288 288
9 6 3 359 354 342 331 323 306 297 276 265 269 276 268 274 265 274 285 292 293 276 273 268 262 262 261 259 263 285 298 297 296 296 294 294 292 289 287 288 288 288 289
3 7 3 2 356 349 343 335 322 304 285 280 272 269 266 261 267 265 274 288 285 277 269 258 254 256 262 261 274 283 290 290 290 292 293 295 295 292 287 287 289 289 289
352 351 353 351 346 339 336 337 333 323 307 296 282 278 273 269 279 268 273 287 289 284 262 253 248 261 272 270 280 288 286 289 289 291 291 292 293 294 291 288 289 289 289
339 345 345 344 341 338 338 334 323 322 323 310 301 289 280 281 278 273 271 282 291 284 264 261 259 249 276 283 287 295 296 292 289 289 288 289 288 289 291 289 288 288 288
354 360 356 352 347 345 342 334 325 318 318 315 312 306 291 287 282 281 276 265 268 282 282 267 267 283 283 284 291 294 291 287 288 289 288 287 287 287 287 287 288 288 289
357 357 359 353 351 349 343 337 329 323 319 311 307 312 310 310 303 291 281 274 263 265 274 277 278 289 288 292 295 294 285 289 288 289 289 288 288 289 288 288 289 289 290
350 352 347 345 347 349 347 343 331 326 318 314 313 308 303 307 306 304 297 288 274 266 270 283 285 290 281 285 296 291 290 289 288 290 293 292 292 290 290 293 292 290 290
348 347 342 342 344 343 343 339 331 331 323 316 315 312 306 306 303 303 300 290 283 278 270 279 287 287 286 282 287 289 293 295 294 296 297 299 297 294 295 295 293 291 290
347 346 344 340 336 333 334 331 326 323 323 320 318 315 311 311 305 304 300 295 289 288 284 283 285 290 291 291 295 295 290 287 296 296 297 299 301 300 300 299 299 295 293
342 340 337 332 327 327 329 328 329 325 324 324 325 322 321 321 315 314 309 308 304 295 288 285 288 292 293 295 294 297 299 295 295 300 295 296 297 299 299 298 298 297 292
333 329 329 331 332 330 332 334 329 328 327 328 332 332 331 331 327 321 314 314 311 303 299 293 292 296 297 306 302 299 294 302 298 298 294 293 298 294 293 293 293 291 290
331 332 333 330 329 330 331 333 331 331 332 332 330 331 331 330 330 331 325 320 313 305 302 296 292 290 294 300 300 297 297 302 296 293 292 291 290 286 290 288 292 295 294
332 332 329 328 325 325 331 333 337 335 332 331 327 326 325 327 330 330 328 327 325 319 308 292 290 291 293 295 293 290 287 287 287 300 301 289 290 283 290 290 290 289 294
324 320 322 325 325 326 332 336 339 339 331 330 328 324 321 324 327 326 323 326 325 326 322 314 296 294 297 299 289 289 290 292 292 290 284 282 290 288 296 292 285 286 294
321 318 322 325 324 324 331 334 340 331 330 330 326 326 323 319 322 326 327 324 325 327 336 334 324 317 317 318 312 303 296 292 291 289 298 284 291 297 293 288 295 297 298
316 320 321 324 320 318 326 333 340 334 330 326 324 323 321 323 323 325 323 320 320 323 330 334 336 334 329 327 326 311 291 283 289 288 296 297 293 307 296 286 295 306 302